Abilene, TX

11:16 PM CDT on June 24, 2017 (GMT -0500)
Abilene Regional

Weather History for KABI - March, 2013

Change the Weather History Date:

Tuesday, March 12, 2013

  Actual Average Record
Temperature  
Mean Temperature 57 °F 55 °F  
Max Temperature 70 °F 67 °F 93 °F (1989)
Min Temperature 43 °F 43 °F 12 °F (1948)
Degree Days  
Heating Degree Days 8 10  
Month to date heating degree days 128 142  
Since 1 July heating degree days 1963 2275  
Cooling Degree Days 0 1  
Month to date cooling degree days 7 7  
Year to date cooling degree days 13 12  
Growing Degree Days 9 (Base 50)    
Moisture  
Dew Point 24 °F    
Average Humidity 30    
Maximum Humidity 39    
Minimum Humidity 21    
Precipitation  
Precipitation 0.00 in 0.06 in 1.37 in (1924)
Month to date precipitation T 0.68  
Year to date precipitation 1.89 3.06  
Sea Level Pressure  
Sea Level Pressure 30.07 in    
Wind  
Wind Speed 11 mph (North)    
Max Wind Speed 22 mph    
Max Gust Speed 28 mph    
Visibility 10 miles    
Events      
T = Trace of Precipitation, MM = Missing Value Source: NWS Daily Summary

Daily Weather History Graph

Daily Weather History Graph

Search for Another Location

Airport or City:

Trip Planner

Search our weather history database for the weather conditions in past years. The results will help you decide how hot, cold, wet, or windy it might be!

Date:

Astronomy

Mar. 12, 2013 Rise Set
Actual Time 7:52 AM CDT 7:44 PM CDT
Civil Twilight 7:27 AM CDT 8:09 PM CDT
Nautical Twilight 6:59 AM CDT 8:37 PM CDT
Astronomical Twilight 6:30 AM CDT 9:06 PM CDT
Moon 8:05 AM CDT (3/12) 8:54 PM CDT (3/12)
Length of Visible Light 12h 41m
Length of Day
11h 52m
New Moon, 1% of the Moon is Illuminated
Mar 12
New Moon
Mar 19
First Quarter
Mar 27
Full
Apr 2
Last Quarter
Apr 10
New

Hourly Weather History & Observations

Time (CDT) Temp. Dew Point Humidity Pressure Visibility Wind Dir Wind Speed Gust Speed Precip Events Conditions
12:52 AM 50.0 °F 21.0 °F 32% 29.96 in 10.0 mi South 8.1 mph - N/A   Clear
1:52 AM 53.1 °F 21.9 °F 30% 29.95 in 10.0 mi South 9.2 mph - N/A   Clear
2:52 AM 53.1 °F 21.9 °F 30% 29.94 in 10.0 mi Variable 5.8 mph - N/A   Clear
3:52 AM 50.0 °F 21.9 °F 33% 29.93 in 10.0 mi SSE 8.1 mph - N/A   Clear
4:52 AM 50.0 °F 21.9 °F 33% 29.92 in 10.0 mi South 10.4 mph - N/A   Clear
5:52 AM 52.0 °F 19.0 °F 27% 29.92 in 10.0 mi South 12.7 mph - N/A   Clear
6:52 AM 51.1 °F 19.0 °F 28% 29.92 in 10.0 mi SSW 12.7 mph - N/A   Clear
7:52 AM 52.0 °F 18.0 °F 26% 29.93 in 10.0 mi SSW 15.0 mph 21.9 mph N/A   Clear
8:52 AM 53.1 °F 19.9 °F 27% 29.99 in 10.0 mi WSW 11.5 mph - N/A   Clear
9:52 AM 59.0 °F 21.0 °F 23% 30.04 in 10.0 mi WSW 11.5 mph - N/A   Clear
10:52 AM 57.9 °F 23.0 °F 26% 30.07 in 10.0 mi NW 20.7 mph - N/A   Clear
11:52 AM 55.9 °F 26.1 °F 32% 30.11 in 10.0 mi NW 23.0 mph - N/A   Clear
12:52 PM 57.0 °F 27.0 °F 32% 30.13 in 10.0 mi NNW 15.0 mph - N/A   Clear
1:52 PM 60.1 °F 28.0 °F 30% 30.13 in 10.0 mi North 10.4 mph 19.6 mph N/A   Clear
2:52 PM 64.0 °F 28.0 °F 26% 30.11 in 10.0 mi North 17.3 mph 24.2 mph N/A   Clear
3:52 PM 66.0 °F 28.0 °F 24% 30.10 in 10.0 mi North 10.4 mph 20.7 mph N/A   Clear
4:52 PM 68.0 °F 27.0 °F 21% 30.10 in 10.0 mi NNE 12.7 mph 23.0 mph N/A   Clear
5:52 PM 68.0 °F 26.1 °F 21% 30.11 in 10.0 mi NNE 11.5 mph 20.7 mph N/A   Clear
6:52 PM 64.9 °F 26.1 °F 23% 30.14 in 10.0 mi NNE 16.1 mph 24.2 mph N/A   Clear
7:52 PM 57.9 °F 25.0 °F 28% 30.19 in 10.0 mi NNE 13.8 mph 19.6 mph N/A   Clear
8:52 PM 55.0 °F 24.1 °F 30% 30.23 in 10.0 mi NNE 10.4 mph - N/A   Clear
9:52 PM 52.0 °F 24.1 °F 34% 30.27 in 10.0 mi NNE 6.9 mph - N/A   Clear
10:52 PM 48.9 °F 24.1 °F 38% 30.30 in 10.0 mi NNE 4.6 mph - N/A   Clear
11:52 PM 48.9 °F 23.0 °F 36% 30.32 in 10.0 mi ENE 3.5 mph - N/A   Clear